Torna al catalogo

MKA-N 1

AttivoScienzaSSO
NORAD 42834·PAYLOAD·🇷🇺 Russia
Questo nome del satellite non è ancora stato confermato da fonti ufficiali.

Lanciato Jul 14, 2017 da Baikonur Cosmodrome

Loading…

Prossimi Passaggi (prossime 24 ore)

TLE

AggiornatoSource: Space-Track

Epoca: Sep 13, 2026, 22:54 UTC

1 42834U 17042K   26256.95462893  .00002960  00000-0  18694-3 0  9990
2 42834  97.4325  55.7407 0010228 111.7187 248.5132 15.09778993500378

Traccia MKA-N 1 in tempo reale con AllMySat

Download on the App Store